Cloud_Cover
2 100 100 100 100 100 100 99 100 100 100 100 11 5 5 0 3 2 64 100 92 7 25 53 100 100 80 12 0 0 0 0 0 0 0 0 82 98 0 0 0 0 0 0 0 1 0 0 0
0 19 100 100 100 100 92 99 100 100 100 100 22 5 2 0 5 5 77 100 100 100 100 100 100 100 100 5 1 0 0 0 0 0 98 66 57 100 100 74 14 0 0 0 0 0 0 0 0
0 0 60 100 100 100 100 32 88 100 100 100 100 80 6 5 5 58 100 100 100 100 100 100 100 100 100 91 5 3 0 0 0 0 3 4 69 100 100 100 9 0 0 0 0 0 0 0 0
0 0 0 0 100 100 100 100 100 100 100 100 100 100 83 5 5 11 100 100 100 100 88 100 100 100 50 39 5 4 0 0 0 0 0 0 0 33 100 100 0 0 0 0 0 0 0 0 0
0 0 0 0 2 87 100 100 100 100 100 100 100 100 100 100 6 5 86 100 100 100 100 100 100 100 100 99 80 4 0 0 0 0 0 0 0 10 89 58 0 0 0 0 0 0 0 0 3
0 0 0 0 0 5 100 100 100 100 99 100 100 100 100 100 100 46 52 100 77 88 97 100 100 100 100 70 92 2 0 0 0 0 0 0 0 0 0 65 0 0 0 1 0 0 0 0 0
0 0 0 0 0 0 27 100 100 100 100 100 100 98 52 100 100 100 100 100 100 51 45 100 100 100 100 63 19 0 0 0 0 0 0 0 0 0 0 0 0 0 0 1 0 4 5 0 5
0 0 0 0 0 0 2 92 100 100 100 100 100 100 8 96 100 60 100 100 100 100 100 100 100 100 100 62 7 0 0 0 0 0 0 0 0 0 0 0 0 0 0 0 0 0 5 1 5
0 0 0 0 0 0 0 72 100 100 100 100 100 100 15 68 14 8 66 100 100 96 98 88 100 99 94 76 44 4 0 0 0 0 0 0 0 0 0 0 0 0 0 0 0 0 0 1 5
0 0 0 0 0 0 0 2 100 100 100 100 100 100 21 63 55 37 99 68 87 96 94 37 5 5 38 29 17 0 0 0 0 0 0 3 0 0 0 0 0 0 0 0 0 0 0 0 9
0 0 0 0 0 0 0 4 5 100 100 100 100 100 44 92 100 98 5 16 100 74 80 47 14 7 6 5 1 3 5 0 0 0 0 0 1 5 4 0 5 5 5 5 3 9 60 92 100
20 0 0 0 0 0 0 3 1 27 97 100 100 100 78 17 100 100 100 100 100 94 100 47 52 6 10 5 4 0 0 4 8 4 16 0 1 5 11 67 60 100 100 100 100 100 100 100 87
0 0 0 0 0 0 0 1 0 0 0 43 100 100 82 28 90 100 100 99 93 99 67 64 41 17 3 1 0 0 16 3 0 0 58 10 6 89 72 98 71 96 98 99 75 21 30 51 11
28 1 0 0 0 0 1 5 5 0 0 0 12 100 100 23 54 42 71 36 89 44 7 5 5 5 0 0 3 3 66 100 54 100 100 100 17 7 83 100 100 100 100 92 5 5 5 51 85
28 13 0 0 0 0 0 3 5 0 0 0 0 97 100 99 33 7 9 39 5 20 13 5 1 0 5 5 47 81 55 99 100 100 100 100 100 100 100 100 100 64 1 0 0 0 5 42 38
4 16 5 3 1 0 68 1 0 0 0 0 0 83 100 88 5 6 30 5 5 56 5 5 5 5 22 5 62 100 100 100 100 100 100 100 76 76 87 39 0 0 0 0 0 0 0 3 12
32 58 51 6 1 5 12 1 0 0 0 0 0 0 100 86 100 20 8 12 100 21 5 5 5 21 92 23 68 100 100 100 100 100 100 56 64 39 20 5 4 2 0 0 0 0 0 0 0
100 28 36 49 5 8 5 3 4 0 0 0 0 0 22 26 65 13 2 90 100 14 75 23 98 100 100 5 55 100 100 80 52 75 72 100 91 100 100 98 45 5 2 0 0 0 0 0 0
10 5 51 5 2 3 4 4 0 0 5 0 0 0 0 0 0 0 0 11 5 8 34 5 49 84 5 0 1 32 66 82 97 85 100 84 91 63 16 13 2 5 2 0 0 0 0 0 0
5 30 14 32 15 68 3 5 0 0 0 1 0 0 0 0 0 0 69 5 0 0 0 3 0 3 0 4 5 9 65 53 25 62 60 24 5 5 5 5 5 3 0 0 0 0 0 0 0
13 20 10 5 34 56 86 9 0 2 2 0 0 0 0 0 0 6 5 0 2 3 4 2 0 0 0 5 5 3 5 5 5 11 5 5 5 5 5 5 2 2 2 0 0 0 0 0 0
20 68 100 62 94 50 81 100 3 0 5 4 0 0 0 0 0 2 0 5 5 0 0 0 0 0 5 5 1 0 0 2 94 18 4 4 0 0 0 0 0 0 2 4 2 4 0 0 0
6 77 5 95 29 99 54 100 5 5 4 0 0 0 0 0 0 0 5 5 5 0 0 0 0 0 1 0 0 21 77 47 5 5 5 0 0 0 0 0 0 5 5 5 5 0 0 0 0
6 98 68 100 100 100 73 87 92 13 0 0 0 0 0 0 0 0 5 4 1 0 0 0 0 3 5 4 60 91 10 3 0 0 0 0 0 0 0 5 5 5 5 5 2 1 1 0 0
35 99 99 100 93 99 43 100 98 31 5 0 0 0 0 0 0 5 5 4 0 0 0 0 2 1 5 78 10 5 4 0 0 0 0 0 0 3 5 5 5 5 5 5 5 5 5 5 0
98 99 84 74 5 100 100 100 100 27 1 0 0 0 0 0 0 5 0 0 0 0 0 0 5 0 5 5 5 5 0 5 0 0 0 0 1 5 5 5 5 5 5 5 5 5 5 5 5
34 58 9 100 100 100 100 100 100 91 92 1 0 0 0 0 0 0 0 0 0 0 0 0 5 5 5 5 4 1 0 0 0 0 0 5 5 5 5 5 5 5 5 5 5 5 5 5 9
88 38 100 100 100 100 95 100 100 48 97 21 0 0 0 0 0 1 0 0 0 0 0 0 0 0 2 3 5 0 0 0 0 0 6 5 5 5 5 2 4 5 5 5 5 5 5 9 5
100 100 100 100 100 100 100 100 100 99 65 6 0 0 0 0 1 0 0 0 0 3 5 0 0 0 4 5 2 0 0 0 0 5 89 5 5 5 5 5 5 5 11 35 7 8 56 15 5
100 100 100 100 100 100 100 100 100 92 4 4 0 0 0 0 0 0 0 0 4 5 5 5 2 5 5 4 0 0 0 5 5 5 5 5 5 77 10 7 74 75 60 71 98 68 5 5 0